Regional Weather Roundup
Issued by NWS

Home | Current Version | Previous Version | Text Only | Print | Product List | Glossary On
Versions: 1 2 3 4 5 6 7 8 9 10 11 12 13 14 15 16 17 18 19 20 21 22 23 24 25 26 27 28 29 30 31 32 33 34 35 36 37 38 39 40 41 42 43 44 45 46 47 48 49 50
000
ASUS46 KLOX 281512
RWRCA

SOUTHERN CALIFORNIA WEATHER ROUNDUP
NATIONAL WEATHER SERVICE OXNARD CALIFORNIA
700 AM PST SAT FEB 28 2015

NOTE: "FAIR" INDICATES FEW OR NO CLOUDS BELOW 12,000 FEET WITH NO
SIGNIFICANT WEATHER AND/OR OBSTRUCTIONS TO VISIBILITY.

  -  STATIONS PRECEEDED BY AN ASTERISK (*) ARE NOT NWS OR FAA
     STATIONS AND ARE NOT SUBJECT TO NWS AND FAA QUALITY CONTROL.

CAZ041-042-087-281600-
LA AND ORANGE COUNTY COASTAL AREAS


CITY           SKY/WX    TMP DP  RH WIND       PRES   REMARKS
L.A. DOWNTOWN  MOCLDY    53  45  74 CALM      29.79R
L.A. AIRPORT   MOCLDY    54  44  69 W5        29.80R
LONG BEACH     PTCLDY    56  43  61 CALM      29.80R

CITY           SKY/WX    TMP DP  RH WIND       PRES   REMARKS
FULLERTON      MOCLDY    56  45  66 S3        29.79R
*GETTY CENTER    N/A    N/A N/A N/A SE2         N/A
HAWTHORNE      PTCLDY    56  43  61 CALM      29.80R
*LEO CARRILLO    N/A     56  45  67 N2G18       N/A
*LOS ALAMITOS  FAIR      49  45  85 SW8       29.80R
*REDONDO BEACH   N/A     56  47  72 CALM      29.81R
SANTA ANA      MOCLDY    60  44  55 SW6       29.81R
STA MONICA APT CLEAR     53  43  68 CALM      29.80R
TORRANCE       PTCLDY    57  48  72 CALM        N/A
*UCLA            N/A     54  43  66 CALM      29.78R

$$

CAZ547-548-048-281600-
LA COUNTY VALLEYS AND INLAND EMPIRE


CITY           SKY/WX    TMP DP  RH WIND       PRES   REMARKS
BURBANK        CLOUDY    53  42  66 CALM      29.78R
VAN NUYS       PTCLDY    50  42  74 S5        29.78R

CITY           SKY/WX    TMP DP  RH WIND       PRES   REMARKS
CORONA AIRPORT MOSUNNY   53  44  71 CALM      29.81R
*CHATSWORTH      N/A     47  41  79 CALM      29.80R
CHINO          MOCLDY    52  44  74 S3        29.82R
*CLAREMONT       N/A     49  48  95 CALM        N/A
MARCH AFB      PTCLDY    46  45  97 SE3       29.80R
*NORTHRIDGE      N/A     48  41  76 CALM        N/A
ONTARIO        MOCLDY    51  44  77 SW3       29.80R
*PASADENA        N/A     54  48  82 CALM        N/A
POMONA         MOCLDY    50  46  87 VRB5      29.82
RIVERSIDE      MOCLDY    51  45  79 CALM      29.81R
SAN BERNARDINO NOT AVBL
*SAN RAFAEL HI   N/A     48  48 100 S7          N/A
*SAUGUS          N/A     48  40  73 NW6         N/A
*WHITEMAN AP   NOT AVBL
*WOODLAND HILL   N/A     45  41  87 S2          N/A

$$

CAZ054-055-281600-
LA AND SAN BERNARDINO COUNTY MOUNTAINS


CITY           SKY/WX    TMP DP  RH WIND       PRES   REMARKS
*ACTON           N/A     42  41  97 CALM        N/A
*BIG BEAR AIRP MOSUNNY   30  23  74 SW16G24   29.71R WCI  19
*BIG PINES       N/A     27  24  89 W2          N/A
SANDBERG       PTCLDY    35  30  82 NW8       29.75S WCI  29
*WARM SPRINGS    N/A     36  33  89 W15         N/A  WCI  27

$$

CAZ028-029-059-060-099-281600-
ANTELOPE VALLEY AND SURROUNDING AREAS


CITY           SKY/WX    TMP DP  RH WIND       PRES   REMARKS
LANCASTER      MOCLDY    41  34  76 W14       29.77R WCI  33
PALMDALE       MOCLDY    44  34  67 W16       29.76R

CITY           SKY/WX    TMP DP  RH WIND       PRES   REMARKS
29 PALMS       MOCLDY    49  38  65 CALM      29.79R
BARSTOW/DAGGET MOCLDY    50  35  56 W20       29.71R
BISHOP         CLOUDY    29  14  53 VRB3        N/A
CHINA LAKE     CLEAR     48  28  46 SW22      29.65R
EDWARDS AFB    PTCLDY    42  35  78 W15       29.73R WCI  34
MOJAVE         FAIR      41  34  75 W16       29.74R WCI  33
NEEDLES        CLOUDY    59  39  47 W7        29.70R
VICTORVILLE    PTCLDY    43  36  75 SW7       29.75S

$$

CAZ039-040-281600-
VENTURA AND SANTA BARBARA COUNTY COAST


CITY           SKY/WX    TMP DP  RH WIND       PRES   REMARKS
CAMARILLO      CLEAR     46  40  79 CALM      29.79R
OXNARD AIRPORT CLEAR     49  42  77 NE3       29.79R
*POINT MUGU    PTCLDY    56  43  61 W3        29.80R
SBA APT/GOLETA PTCLDY    50  42  74 CALM      29.79R
*SANTA BARBARA   N/A     53  40  63 E2        29.87R
*VENTURA         N/A     47  38  73 CALM      29.84R

$$

CAZ044-045-281600-
VENTURA COUNTY VALLEYS


CITY           SKY/WX    TMP DP  RH WIND       PRES   REMARKS
*SIMI VALLEY     N/A     45  42  89 CALM      29.78R
*OJAI            N/A     40  38  93 CALM      29.77R
*FILLMORE        N/A     49  46  86 NW1       29.68S

$$

CAZ053-281600-
VENTURA COUNTY MOUNTAINS


CITY           SKY/WX    TMP DP  RH WIND       PRES   REMARKS
*LOCKWOOD VLY    N/A     30  27  86 MISG        N/A
*ROSE VALLEY     N/A     25  27 100 MISG        N/A

$$

CAZ034-035-036-281600-
CENTRAL COAST AND SANTA YNEZ VALLEY


CITY           SKY/WX    TMP DP  RH WIND       PRES   REMARKS
SAN LUIS OBISP MOCLDY    46  43  89 SE6       29.81S
SANTA MARIA    CLOUDY    47  43  86 S3        29.83R

CITY           SKY/WX    TMP DP  RH WIND       PRES   REMARKS
*CAL POLY SLO    N/A     45  45 100 CALM        N/A
*LOMPOC        CLOUDY    46  43  87 CALM      29.84R
*PISMO BEACH     N/A     47  44  90 CALM      29.82S
*SANTA YNEZ    FAIR      41  39  93 CALM      29.82R

$$

CAZ037-038-051-281600-
SAN LUIS OBISPO COUNTY INTERIOR AND CUYAMA VALLEY


CITY           SKY/WX    TMP DP  RH WIND       PRES   REMARKS
*CUYAMA          N/A     37  32  83 CALM      29.78R
PASO ROBLES    CLEAR     40  37  89 S3        29.79S

$$

CAZ032-033-061-281600-
SOUTHERN DESERTS


CITY           SKY/WX    TMP DP  RH WIND       PRES   REMARKS
BLYTHE         CLEAR     60  40  47 SW15      29.74R
IMPERIAL       CLEAR     61  41  47 W22G30    29.77R
PALM SPRINGS   CLEAR     58  39  49 CALM      29.73R
THERMAL        PTCLDY    63  37  38 MISG      29.72R

$$

ELSEWHERE ACROSS THE WESTERN UNITED STATES AND MEXICO


CITY           SKY/WX    TMP DP  RH WIND       PRES   REMARKS
DENVER, CO     PTSUNNY    5   2  87 SW6       29.95R FOG     WCI  -6
GRAND CANYON,  CLOUDY    35  32  88 SW17      29.71R WCI  25
HONOLULU, HI   MOCLDY    72  66  83 NW6       29.92R
KAHULUI, MAUI  LGT RAIN  72  70  94 E6        29.91F
LAKE TAHOE, CA MOCLDY    30  21  69 S6        29.62R WCI  24
LAS VEGAS, NV  MOCLDY    53  33  46 SW16      29.59S
MAMMOTH LAKES, FAIR      23  18  80 CALM      29.63R
MEXICO CITY, M SUNNY     59  41  51 NE2       30.33R
PHOENIX, AZ    CLOUDY    60  43  53 S8        29.78R
PORTLAND, OR   PTCLDY    39  38  96 W5        30.03R
RENO, NV       LGT SNOW  34  33  96 CALM      29.66R FOG
SALT LAKE CITY MOCLDY    31  24  75 CALM      29.67R
SAN DIEGO, CA  LGT RAIN  59  49  69 W9        29.87R
SAN FRANCISCO, MOCLDY    52  49  89 NW8       29.75S
SAN JOSE, CA   MOCLDY    49  43  80 SE3       29.76S
SEATTLE, WA    CLEAR     38  31  76 N10       30.11R WCI  31
TIJUANA, MEX   CLOUDY    54  48  82 W9        29.88

$$

STATION/POSITION TIME  TEMP    WIND        PRES    VSBY  WAVE
                       AIR SEA DIR/SP/G                  HT/PER
                 (UTC) (F)     (DEG/KT/KT) (MB)    (MI)  (FT/S)
POINT ARGUELLO B NOT AVBL
WEST SANTA BARBA 1500   56 59  320/ 14/ 17 1009.0R         6/ 8
POINT CONCEPTION NOT AVBL
EAST SANTA BARBA NOT AVBL
SANTA MONICA BAY 1500   57 62  280/ 21/ 25 1008.8R         5/ 6


USA.gov is the U.S. government's official web portal to all federal, state and local government web resources and services.